Showing default

GEESAT 2-05, 58909

Orbit data source: Space-Track

GEESAT 2-05, 58909 is a payload satellite owned by GeeSpace (CN) in LEO that was launched on Fri, 02 Feb 2024 UTC via a CHANG ZHENG 2C launch vehicle from the Xichang Space Center, China (XSC). Payload-class satellites include a variety of spacecraft equipped with specific instruments for various scientific and technological missions. These include communications satellites like Starlink; space stations such as the ISS; scientific satellites like the Hubble; Earth observation satellites from companies like Planet Labs, Umbra, and HawkEye 360; GPS; miniature CubeSats for education and research; and military/defense satellites.

Loading next visibility...
Identifier
58909, 2024-023E
Orbit
LEO
Country
Flag of CNCN / PRC
Related business
Manufacturer
GWCG
Mission
Operational Commercial Navigation
Bus & Motor
GPS100, Unknown motor
Mass
130 kg wet, 130 kg dry
Launch date (UTC)
2024-02-02 (2 years ago)
Launch vehicle
CHANG ZHENG 2C
Launch site
Xichang Space Center, China (XSC)
Object type
Payload
Rocket body
Debris
Shape & HBR
Box + 2 Pan, 1.0 m
Radar Cross Section
0.833 m², Medium (>0.1 m² and < 1m²)

Expand to show TLE details & history
Last TLE update: 7 hours ago

TLE from 7 hours ago
0 GEESAT 2-05
1 58909U 24023E   25304.31450409  .00004182  00000-0  45387-3 0  9997
2 58909  50.0052 334.3673 0008656 314.6354  45.3881 14.89931746 94942
Epoch: 2025-10-31T07:32Z
TLE epoch observation values (Epoch: 2025-10-31T07:32:53.153Z)
Latitude
0.00002°
Longitude
-178.71487°
Altitude
594.457 km
Speed
7.566 km/s
True Right ascension
22h 17m 28s
True Declination
0° 00' 00"
Sunlit
Object was in full shadow at epoch
Visualization orbit readout
Latitude
Unknown
Longitude
Unknown
Altitude
Unknown
Speed
Unknown
Apparent Right ascension
Unknown
Apparent Declination
Unknown
Sunlit
N/A
Visualization observer readout
Local Sidereal Time
09:43:21
Azimuth
Unknown
Elevation
Unknown
Doppler factor
Unknown
Orbital elements
Apogee altitude
604.948 km
Perigee altitude
592.869 km
Semi-major axis
6,977.045 km
Eccentricity
0.00087
Inclination
50.0052°
RAAN
334.3673°
Arg. of periapsis
314.6354°
True anomaly
45.45877°
Mean anomaly
45.3881°
Eccentric anomaly
45.42343°
Mean motion
3.72422 °/min
Orbital period
96.66 mins
BSTAR
0.00045387
Loading maneuver chart data...
Computing Atmospheric mass density...
Loading historical data...
Loading historical data...
Loading historical data...
Loading historical data...
Loading historical data...
Loading historical data...
Loading historical data...

Documentation

Showing up to 5 results
|